This demonstration page uses our WeatherBlox Daily Observations layout. Learn more.

41.55636, -103.73856

Hourly Observations for January 6, 2020

Temp ( °F °C ) Dew Point ( °F °C ) Humidity (%) Winds ( mph kmh ) Pressure ( in mb ) Visibility ( mi km ) Precip ( " mm )
12:58 am 00:58 Mostly Cloudy 32 0.2 13 -10.4 45 45 SSW 14 22 30.21 1023 10 16.0934 0 0
1:58 am 01:58 Mostly Cloudy 33 0.5 12 -11.1 42 42 SW 5 7 30.22 1023 10 16.0934 0 0
2:58 am 02:58 Mostly Cloudy 32 0.1 15 -9.4 49 49 SSW 23 37 30.2 1023 10 16.0934 0 0
3:58 am 03:58 Cloudy 34 0.9 17 -8.3 51 51 SSW 23 37 30.18 1022 10 16.0934 0 0
4:58 am 04:58 Mostly Cloudy 31 -0.8 25 -4 79 79 SW 21 33 30.16 1022 10 16.0934 0 0
5:58 am 05:58 Mostly Cloudy 31 -0.6 23 -5.2 71 71 SW 20 31 30.16 1022 10 16.0934 0 0
6:58 am 06:58 Partly Cloudy 33 0.8 20 -6.8 57 57 W 20 31 30.14 1021 10 16.0934 0 0
7:58 am 07:58 Mostly Clear 31 -0.6 18 -7.9 58 58 W 17 28 30.14 1021 10 16.0934 0 0
8:58 am 08:58 Clear 29 -1.4 17 -8.5 59 59 W 22 35 30.16 1022 10 16.0934 0 0
9:58 am 09:58 Clear 30 -1.2 16 -8.9 56 56 W 21 33 30.19 1022 10 16.0934 0 0
10:58 am 10:58 Clear 29 -1.9 15 -9.6 56 56 W 16 26 30.2 1023 10 16.0934 0 0
11:58 am 11:58 Clear 28 -2.4 14 -10.1 56 56 W 16 26 30.2 1023 10 16.0934 0 0
12:58 pm 12:58 Clear 26 -3.1 14 -10.2 58 58 WNW 17 28 30.21 1023 10 16.0934 0 0
1:58 pm 13:58 Clear 23 -4.8 14 -9.9 68 68 WNW 13 20 30.24 1024 10 16.0934 0 0
2:58 pm 14:58 Sunny 22 -5.7 15 -9.7 74 74 W 10 17 30.27 1025 10 16.0934 0 0
3:58 pm 15:58 Mostly Cloudy 32 0 17 -8.2 54 54 WNW 21 33 30.26 1025 10 16.0934 0 0
4:58 pm 16:58 Mostly Cloudy 34 1.2 16 -9 47 47 WNW 28 44 30.26 1025 10 16.0934 0 0
5:58 pm 17:58 Mostly Cloudy 35 1.4 14 -10.1 42 42 WNW 28 44 30.26 1025 10 16.0934 0 0
6:58 pm 18:58 Mostly Cloudy 35 1.9 13 -10.7 39 39 WNW 23 37 30.22 1024 10 16.0934 0 0
7:58 pm 19:58 Mostly Cloudy 37 2.6 11 -11.7 34 34 NW 29 46 30.22 1023 10 16.0934 0 0
8:58 pm 20:58 Mostly Cloudy 35 1.7 10 -12.3 35 35 N 22 35 30.24 1024 10 16.0934 0 0
9:58 pm 21:58 Mostly Cloudy 37 2.6 7 -13.7 29 29 NW 18 30 30.24 1024 10 16.0934 0 0
10:58 pm 22:58 Mostly Sunny 35 1.7 14 -10.2 41 41 WNW 28 44 30.28 1025 10 16.0934 0 0
11:58 pm 23:58 Mostly Cloudy 33 0.6 14 -9.9 46 46 WNW 22 35 30.3 1026 10 16.0934 0 0

Powered by AerisWeather